Regional Weather Roundup
Issued by NWS Raleigh/Durham, NC

Home | Current Version | Previous Version | Text Only | Print | Product List | Glossary On
Versions: 1 2 3 4 5 6 7 8 9 10 11 12 13 14 15 16 17 18 19 20 21 22 23 24 25 26 27
000
ASUS42 KRAH 240210
RWRRAH
NORTH CAROLINA WEATHER ROUNDUP
NATIONAL WEATHER SERVICE RALEIGH NC
1000 PM EDT MON OCT 23 2017

NOTE: "FAIR" INDICATES FEW OR NO CLOUDS BELOW 12,000 FEET WITH NO
SIGNIFICANT WEATHER AND/OR OBSTRUCTIONS TO VISIBILITY.

NCZ001-053-055-056-065-067-240300-
WESTERN NORTH CAROLINA

CITY           SKY/WX    TMP DP  RH WIND       PRES   REMARKS
ASHEVILLE      CLEAR     56  49  77 N3        29.88R
JEFFERSON      CLOUDY    52  47  83 W6        29.87R
HICKORY        NOT AVBL
RUTHERFORDTON  CLEAR     59  58  96 CALM      29.83R
MOUNT AIRY     CLOUDY    62  58  88 CALM      29.82R
BOONE          PTCLDY    52  49  92 NW12G17   29.89R
$$

NCZ021-022-025-041-071-084-088-240300-
CENTRAL NORTH CAROLINA

CITY           SKY/WX    TMP DP  RH WIND       PRES   REMARKS
CHARLOTTE      PTCLDY    62  61  96 SW8       29.83R
GREENSBORO     CLOUDY    60  59  96 SW7       29.81R
WINSTON-SALEM  PTCLDY    61  59  93 SW3       29.81S
RALEIGH-DURHAM TSTM      70  70 100 SW9G22    29.81R FOG
FORT BRAGG     LGT RAIN  72  72 100 SW17G26   29.80R
FAYETTEVILLE   RAIN      73  72  96 S21G29    29.80R FOG
BURLINGTON     LGT RAIN  63  63 100 VRB3      29.81S
LAURINBURG     HVY RAIN  65  64  97 W13G21    29.85R FOG
$$

NCZ011-015-027-028-043-044-047-080-103-240300-
NORTHEASTERN NORTH CAROLINA

CITY           SKY/WX    TMP DP  RH WIND       PRES   REMARKS
ROCKY MT-WILSO CLOUDY    73  70  90 S14G22    29.83S
GREENVILLE     MOCLDY    72  70  94 S12       29.90R
WASHINGTON     MOCLDY    72  69  92 SE15      29.90R
ELIZABETH CITY CLOUDY    75  68  78 SE13G23   29.92F
MANTEO         CLOUDY   N/A N/A N/A S15G22    29.96S
CAPE HATTERAS  CLOUDY    78  68  71 S28G36    29.98R
$$

NCZ078-087-090-091-093-098-101-240300-
SOUTHEASTERN NORTH CAROLINA

CITY           SKY/WX    TMP DP  RH WIND       PRES   REMARKS
LUMBERTON      LGT RAIN  74  71  91 S14G26    29.81R
GOLDSBORO      CLOUDY    75  69  80 SE18G25   29.82F
KINSTON        CLOUDY    73  70  88 SE17G23   29.87F
KENANSVILLE    CLOUDY    75  68  78 SE13G24   29.82F
NEW BERN       MOCLDY    73  71  93 S15G24    29.93S
CHERRY POINT   LGT RAIN  75  71  87 S17G25    29.94S
BEAUFORT       MOCLDY    75  70  84 S20G30    29.96R
JACKSONVILLE   CLOUDY    77  72  84 S20G32    29.91R
WILMINGTON     RAIN      76  72  87 S17G24    29.93R
$$





USA.gov is the U.S. government's official web portal to all federal, state and local government web resources and services.